[[{"header":{"parameterUnit":"m.s-1","parameterCategory":1,"la1":30.2991,"la2":30.254,"lo1":-89.0895,"lo2":-89.0444,"dy":0.0017,"dx":0.0017,"nx":28,"ny":28,"refTime":"2024-04-10T03:00:00:Z","depth":0,"parameterNumber":2,"parameterNumberName":"U-component_of_WINDS"},"data":[0,0,0,0,0,0,0,0,0,0,0,0,0,0,0,0,0,0,0,0,0,0,0,0,0,0,0,0,0,0,0,0,0,0,0,0,0,0,0,0,0,0,0,0,0,0,0,0,0,0,0,0,0,0,0,0,0,0,6.9314,6.9315,0,6.9471,6.9472,6.9474,6.9438,6.9435,6.9432,6.943,6.9591,6.9598,6.9605,0,0,0,0,0,0,0,0,0,0,0,0,0,6.8985,6.8991,6.9313,6.9315,6.9317,6.947,6.9472,6.9475,6.9439,6.9435,6.9432,6.9428,6.9588,6.9597,6.9605,0,0,0,0,0,0,0,0,0,0,0,0,0,6.9133,6.8993,6.9313,6.9318,6.932,6.947,6.9472,6.9475,6.944,6.9435,6.9431,6.9427,6.9586,6.9596,6.9606,6.9761,0,0,6.9639,6.9643,0,0,0,0,0,0,0,0,6.9125,6.9145,6.9315,6.9318,6.932,6.943,6.9415,6.9571,6.9441,6.9394,6.943,6.9424,6.9541,6.9555,6.9594,6.9769,6.9775,6.964,6.9646,6.9651,6.9654,0,0,0,0,0,0,0,6.9115,6.9138,6.9375,6.9318,6.9321,6.9313,6.9329,6.9445,6.9491,6.9398,6.9396,6.9415,6.9541,6.9584,6.9598,6.9778,6.9639,6.9649,6.9655,6.9659,7.009,7.0095,0,0,0,0,0,0,6.9102,6.913,6.937,6.938,6.921,6.9323,6.9341,6.94,6.9489,6.9499,6.9418,6.9413,6.9568,6.9585,6.9603,6.9792,6.9651,6.966,6.9667,7.0085,7.0091,7.0097,0,0,0,0,0,0,6.9095,6.9124,6.9364,6.9255,6.9285,6.9333,6.9399,6.9405,6.9447,6.9505,6.9513,6.9453,6.9565,6.9588,6.9723,6.9797,6.9665,6.9675,7.0079,7.0087,7.0094,7.017,0,0,0,0,0,0,6.9086,6.9121,6.918,6.9256,6.9291,6.9481,6.9404,6.9411,6.9466,6.946,6.954,6.9549,6.9564,6.9707,6.9733,6.9809,6.9683,7.0073,7.0083,7.0092,7.0161,7.0179,7.0195,0,0,0,0,0,6.9074,6.9194,6.9183,6.9212,6.9365,6.9485,6.9505,6.9519,6.9472,6.9532,6.9569,6.9546,6.9785,6.9721,6.975,6.9831,7.0068,7.008,7.0091,7.0154,7.0176,7.0195,0,0,0,0,0,0,6.9125,6.9204,6.9193,6.9341,6.9407,6.9479,6.9554,6.9542,6.9622,6.9613,6.9627,6.9646,6.9784,6.982,6.9748,6.9987,6.992,6.9938,6.9957,6.9979,6.9996,6.9984,6.9692,0,0,0,0,0,6.9154,6.9244,6.9309,6.9434,6.9467,6.9506,6.9558,6.9564,6.9632,6.966,6.9707,6.9774,6.9865,6.9924,7.001,7.0167,7.0185,7.0236,7.0253,7.0267,7.0282,7.037,7.0395,7.0135,7.0134,7.0134,0,0,6.9213,6.9268,6.9324,6.9445,6.9497,6.9591,6.9529,6.963,6.9701,6.9675,6.9805,6.9843,6.9919,7.0066,7.0133,7.0101,7.0358,7.0282,7.0292,7.03,7.0385,7.0409,7.0431,7.0142,7.0141,7.014,0,0,6.9371,6.9421,6.9531,6.9585,6.9664,6.9689,6.9716,6.979,6.9814,6.9945,6.9929,7.0013,7.0168,7.0224,7.0273,7.0455,7.0438,7.0483,7.0571,7.0657,7.0677,7.0696,7.0762,7.0786,7.0498,7.0498,7.0498,0,6.9435,6.9576,6.959,6.9694,6.9749,6.9731,6.9844,6.9895,6.9998,7.0037,7.0,7.0196,7.0246,7.0407,7.0452,7.0491,7.0523,7.0473,7.0673,7.0692,7.0709,7.0773,7.0798,7.0503,7.0502,7.0502,7.0501,0,6.9652,6.9751,6.9831,6.9932,6.9996,7.0104,7.0135,7.0198,7.0199,7.0229,7.0364,7.0424,7.0523,7.0562,7.0563,7.0724,7.0702,7.0669,7.0602,7.0739,7.0799,7.0823,7.051,7.0508,7.0507,7.0506,0,0,6.9845,6.9954,6.9983,7.003,7.0117,7.0194,7.0302,7.04,7.0455,7.0527,7.062,7.0752,7.0723,7.0779,7.0787,7.0862,7.1005,7.082,7.0822,7.0854,7.1189,7.1213,7.1241,7.0994,7.0999,7.1003,7.1183,0,7.0011,7.0202,7.0219,7.0391,7.0483,7.0469,7.0564,7.0628,7.0659,7.0743,7.0777,7.0872,7.0825,7.0859,7.0933,7.0972,7.1073,7.0959,7.1082,7.1086,7.1063,7.1272,7.1299,7.1465,7.1206,7.121,7.1213,0,7.023,7.0311,7.0492,7.0569,7.0608,7.0693,7.0785,7.0865,7.0939,7.0956,7.102,7.1018,7.1131,7.1061,7.1218,7.114,7.1192,7.1219,7.1226,7.1238,7.1158,7.1292,7.1519,7.1544,7.125,7.1247,7.1244,0,7.0355,7.0508,7.0637,7.0677,7.077,7.083,7.0871,7.0941,7.0999,7.108,7.1118,7.1211,7.1262,7.1335,7.1359,7.1305,7.1516,7.1447,7.1535,7.1535,7.158,7.1577,7.182,7.1612,7.1612,7.1611,7.1611,0,7.0539,7.0651,7.0695,7.0774,7.09,7.0919,7.1043,7.1081,7.1143,7.1231,7.1224,7.1306,7.1333,7.1421,7.1441,7.1569,7.1592,7.161,7.1614,7.1611,7.1609,7.1645,7.1635,7.1618,7.1617,7.1615,7.1614,0,7.0699,7.0732,7.0873,7.0949,7.0971,7.1061,7.1127,7.1204,7.1235,7.1346,7.1373,7.1421,7.1524,7.1556,7.1679,7.1693,7.1844,7.1837,7.1819,7.182,7.1907,7.1899,7.2182,7.2221,7.1986,7.1989,7.199,0,7.0815,7.0901,7.0988,7.1046,7.109,7.1184,7.1244,7.1267,7.133,7.1422,7.1489,7.1591,7.1673,7.1839,7.1886,7.1981,7.1977,7.207,7.1991,7.1987,7.1981,7.1976,7.1985,7.2085,7.2087,7.2089,7.2091,0,7.1018,7.1031,7.1118,7.1212,7.1284,7.1359,7.1431,7.1479,7.1512,7.1584,7.1689,7.1754,7.1881,7.1983,7.2081,7.2124,7.2115,7.2115,7.2141,7.2139,7.2126,7.2136,7.1861,7.2109,7.2107,7.2106,7.2105,7.2104,7.1161,7.1238,7.1311,7.1409,7.1466,7.1534,7.1611,7.1652,7.1741,7.1846,7.1854,7.1969,7.2043,7.2173,7.2222,7.2313,7.2286,7.2323,7.2332,7.2342,7.2349,7.2111,7.233,7.233,7.2329,7.2329,7.2329,0,7.1365,7.1412,7.1502,7.1604,7.1681,7.1665,7.1745,7.1811,7.1912,7.1981,7.2064,7.2186,7.2286,7.2341,7.2441,7.2503,7.2502,7.2529,7.2525,7.2536,7.2367,7.2335,7.2529,7.2529,7.2529,7.2529,7.2529,7.2529,7.148,7.161,7.1632,7.1791,7.1837,7.195,7.1997,7.2061,7.2117,7.2254,7.2337,7.2372,7.2437,7.2542,7.2633,7.2647,7.2685,7.2716,7.2727,7.2568,7.2547,7.2528,7.2498,7.2723,7.2724,7.2888,7.289,7.2891]},{"header":{"parameterUnit":"m.s-1","parameterCategory":1,"la1":30.2991,"la2":30.254,"lo1":-89.0895,"lo2":-89.0444,"dy":0.0017,"dx":0.0017,"nx":28,"ny":28,"refTime":"2024-04-10T03:00:00:Z","depth":0,"parameterNumber":3,"parameterNumberName":"V-component_of_WINDS"},"data":[0,0,0,0,0,0,0,0,0,0,0,0,0,0,0,0,0,0,0,0,0,0,0,0,0,0,0,0,0,0,0,0,0,0,0,0,0,0,0,0,0,0,0,0,0,0,0,0,0,0,0,0,0,0,0,0,0,0,-3.744,-3.7441,0,-3.75,-3.7501,-3.7502,-3.7499,-3.7498,-3.7497,-3.7496,-3.7556,-3.7558,-3.756,0,0,0,0,0,0,0,0,0,0,0,0,0,-3.7321,-3.7324,-3.744,-3.7441,-3.7442,-3.75,-3.7501,-3.7502,-3.7499,-3.7498,-3.7497,-3.7496,-3.7555,-3.7558,-3.756,0,0,0,0,0,0,0,0,0,0,0,0,0,-3.7376,-3.7324,-3.744,-3.7447,-3.7449,-3.75,-3.7501,-3.7502,-3.7499,-3.7498,-3.7497,-3.7495,-3.7554,-3.7557,-3.7561,-3.7608,0,0,-3.7572,-3.7573,0,0,0,0,0,0,0,0,-3.7373,-3.7381,-3.7445,-3.7447,-3.7448,-3.7491,-3.7481,-3.7537,-3.75,-3.748,-3.7496,-3.7495,-3.7535,-3.754,-3.7554,-3.7611,-3.7613,-3.7572,-3.7574,-3.7576,-3.7577,0,0,0,0,0,0,0,-3.7369,-3.7378,-3.7464,-3.7446,-3.7448,-3.7447,-3.7454,-3.7492,-3.7514,-3.7482,-3.7481,-3.7489,-3.7535,-3.755,-3.7555,-3.7614,-3.7572,-3.7575,-3.7577,-3.7579,-3.7714,-3.7715,0,0,0,0,0,0,-3.7364,-3.7375,-3.7462,-3.7466,-3.7407,-3.745,-3.7458,-3.7478,-3.7513,-3.7517,-3.749,-3.7488,-3.7545,-3.7551,-3.7557,-3.7615,-3.7576,-3.7579,-3.7581,-3.7712,-3.7714,-3.7716,0,0,0,0,0,0,-3.7362,-3.7372,-3.7459,-3.742,-3.7431,-3.7454,-3.7477,-3.748,-3.7495,-3.752,-3.7523,-3.7501,-3.7544,-3.7552,-3.7596,-3.7617,-3.7581,-3.7584,-3.7711,-3.7713,-3.7715,-3.7731,0,0,0,0,0,0,-3.7358,-3.7371,-3.739,-3.7421,-3.7434,-3.7497,-3.7479,-3.7482,-3.7502,-3.7501,-3.7531,-3.7535,-3.7544,-3.7591,-3.7599,-3.7622,-3.7587,-3.7709,-3.7712,-3.7714,-3.7729,-3.7734,-3.7738,0,0,0,0,0,-3.7354,-3.7391,-3.739,-3.7401,-3.7457,-3.7499,-3.7506,-3.7516,-3.7504,-3.7522,-3.7538,-3.7534,-3.7614,-3.7595,-3.7605,-3.7628,-3.7708,-3.7711,-3.7714,-3.7727,-3.7733,-3.7738,0,0,0,0,0,0,-3.736,-3.7395,-3.7395,-3.7443,-3.7468,-3.7498,-3.7522,-3.7522,-3.755,-3.7547,-3.7558,-3.7565,-3.7609,-3.7623,-3.7602,-3.7677,-3.7659,-3.7664,-3.7665,-3.7671,-3.7676,-3.7671,-3.7589,0,0,0,0,0,-3.7368,-3.7399,-3.7428,-3.7467,-3.748,-3.7499,-3.7517,-3.7523,-3.7549,-3.7559,-3.7578,-3.7603,-3.7633,-3.7653,-3.7683,-3.7732,-3.7738,-3.7753,-3.7757,-3.7761,-3.7765,-3.7792,-3.7799,-3.7727,-3.7727,-3.7727,0,0,-3.7383,-3.7405,-3.7424,-3.7469,-3.7489,-3.7521,-3.7508,-3.7542,-3.7565,-3.7564,-3.7607,-3.7622,-3.765,-3.7696,-3.7718,-3.771,-3.7787,-3.7765,-3.7768,-3.777,-3.7797,-3.7803,-3.7809,-3.7729,-3.7729,-3.7728,0,0,-3.7426,-3.7446,-3.7482,-3.7503,-3.7534,-3.7546,-3.7555,-3.7586,-3.7596,-3.7639,-3.7639,-3.7667,-3.7719,-3.774,-3.7757,-3.781,-3.7808,-3.7819,-3.7842,-3.7869,-3.7875,-3.788,-3.7899,-3.7905,-3.7824,-3.7824,-3.7824,0,-3.744,-3.7489,-3.75,-3.7535,-3.7555,-3.7557,-3.7593,-3.7612,-3.7651,-3.7664,-3.7655,-3.7722,-3.7741,-3.7793,-3.7806,-3.782,-3.783,-3.7815,-3.7873,-3.7878,-3.7883,-3.7901,-3.7908,-3.7825,-3.7825,-3.7825,-3.7825,0,-3.7505,-3.7539,-3.7564,-3.7602,-3.7625,-3.766,-3.7677,-3.7699,-3.7703,-3.7716,-3.7761,-3.7784,-3.7819,-3.7831,-3.7835,-3.7884,-3.7878,-3.7871,-3.7853,-3.7891,-3.7908,-3.7915,-3.7827,-3.7826,-3.7826,-3.7826,0,0,-3.7552,-3.7598,-3.7607,-3.7625,-3.766,-3.7686,-3.7722,-3.7757,-3.7775,-3.7802,-3.7832,-3.7877,-3.7871,-3.7891,-3.7897,-3.7921,-3.7962,-3.7911,-3.7912,-3.7919,-3.8017,-3.8021,-3.8029,-3.7961,-3.7962,-3.7963,-3.8014,0,-3.7599,-3.7663,-3.7675,-3.773,-3.7762,-3.7765,-3.7796,-3.782,-3.7834,-3.7863,-3.7878,-3.791,-3.79,-3.7912,-3.7935,-3.7952,-3.7981,-3.7948,-3.7988,-3.7989,-3.798,-3.8038,-3.8043,-3.809,-3.8021,-3.8022,-3.8023,0,-3.7661,-3.7691,-3.775,-3.7782,-3.7796,-3.7823,-3.7857,-3.7884,-3.7913,-3.7921,-3.7944,-3.7948,-3.7985,-3.7967,-3.8018,-3.7995,-3.8013,-3.8023,-3.8026,-3.8029,-3.8008,-3.8043,-3.8105,-3.8112,-3.8034,-3.8033,-3.8032,0,-3.769,-3.7745,-3.7788,-3.7803,-3.7841,-3.786,-3.7877,-3.7904,-3.7925,-3.7954,-3.7968,-3.8,-3.8018,-3.8043,-3.8056,-3.8042,-3.8107,-3.8089,-3.8114,-3.8114,-3.8127,-3.8126,-3.8193,-3.8139,-3.8139,-3.8139,-3.8139,0,-3.7741,-3.7776,-3.7801,-3.7827,-3.7867,-3.7881,-3.7921,-3.7937,-3.7961,-3.7991,-3.7995,-3.8022,-3.8038,-3.8067,-3.8078,-3.8119,-3.8127,-3.8134,-3.8137,-3.8134,-3.8133,-3.8145,-3.8141,-3.8141,-3.814,-3.814,-3.814,0,-3.7779,-3.7797,-3.7843,-3.7876,-3.7886,-3.7914,-3.7942,-3.7967,-3.7982,-3.8019,-3.8028,-3.805,-3.8085,-3.8101,-3.8144,-3.8151,-3.8198,-3.8198,-3.8189,-3.8189,-3.8213,-3.8211,-3.8289,-3.83,-3.824,-3.8241,-3.8241,0,-3.781,-3.7838,-3.7874,-3.7894,-3.7912,-3.7944,-3.7966,-3.7981,-3.8003,-3.8038,-3.8059,-3.8095,-3.8124,-3.8179,-3.8199,-3.8232,-3.8233,-3.8258,-3.8238,-3.8234,-3.8233,-3.8231,-3.8234,-3.8262,-3.8262,-3.8263,-3.8263,0,-3.7863,-3.787,-3.7901,-3.7936,-3.7962,-3.799,-3.8017,-3.8033,-3.8052,-3.8077,-3.8113,-3.8136,-3.8181,-3.8216,-3.825,-3.8267,-3.8268,-3.827,-3.8277,-3.8274,-3.8268,-3.8271,-3.8198,-3.8268,-3.8267,-3.8267,-3.8267,-3.8266,-3.7898,-3.7923,-3.7953,-3.7988,-3.801,-3.8036,-3.8061,-3.808,-3.8111,-3.8149,-3.8156,-3.8194,-3.8223,-3.827,-3.8288,-3.8318,-3.8312,-3.8323,-3.8326,-3.8328,-3.8329,-3.8263,-3.8325,-3.8325,-3.8324,-3.8324,-3.8324,0,-3.7951,-3.7971,-3.8003,-3.8041,-3.8068,-3.8069,-3.8099,-3.8122,-3.8156,-3.8183,-3.8212,-3.8254,-3.8288,-3.8312,-3.8347,-3.8366,-3.8368,-3.8375,-3.8373,-3.8377,-3.8333,-3.8323,-3.8373,-3.8373,-3.8373,-3.8373,-3.8373,-3.8373,-3.7982,-3.8024,-3.8036,-3.809,-3.8109,-3.8148,-3.8165,-3.8189,-3.8211,-3.8258,-3.8287,-3.8302,-3.8328,-3.8365,-3.8396,-3.8402,-3.8415,-3.8422,-3.8428,-3.8386,-3.838,-3.8375,-3.8366,-3.8425,-3.8425,-3.847,-3.847,-3.847]}]]